Weather in Hegang

China     47°17′34″N   130°16′08″E
temp.,
°C
wind,
m/s
gust,
m/s
humid.,
%
clouds,
%
prec.,
mm/h
press.,
hPa
HPBL,
m
6 may, thu
thu623:00+8wsw3775100 0.0 997239
02:00+7sw237833 0.1 99849
05:00+7sw277241 0.0 999173
08:00+14w584744 0.0 10001469
11:00+18w6927100 0.0 9993014
14:00+20wsw7102247 0.0 9983287
17:00+18wsw5826100 0.0 999966
20:00+13wnw223862 0.0 100013
7 may, fri
fri723:00+11nnw2343100 0.0 100137
02:00+9n355770 0.0 1000105
05:00+8n2671100 0.0 999197
08:00+11ne4660100 0.0 997600
11:00+13nne6756100 0.9 994943
14:00+14ne8962100 1.0 990744
17:00+11nnw71184100 1.4 986448
20:00+9nnw5890100 3.2 986360
8 may, sat
sat823:00+9nne3693100 4.8 985435
02:00+6ne51091100 9.3 987650
05:00+5n4792100 2.8 989662
08:00+6n4689100 3.6 990726
11:00+5n3490100 0.4 992794
14:00+5n5793100 3.1 993852
17:00+5nne4795100 0.8 994798
20:00+5n3795100 1.9 995898
9 may, sun
sun923:00+4nnw5897100 1.4 995700
02:00+4nw41093100 1.5 996676
05:00+5nw498688 0.0 997768
08:00+6nw598395 0.1 998991
11:00+7wnw6106870 0.1 9991199
14:00+9wnw695988 0.1 10001385
17:00+9nw59607 0.0 10011515
20:00+5wnw227615 0.0 100318
10 may, mon
mon1023:00+4w237834 0.0 100539
02:00+3wnw34808 0.0 100675
05:00+4wnw247776 0.0 1007109
08:00+10n235139 0.0 10081127
11:00+13ne244235 0.0 10081790
14:00+14ene644796 0.0 10071476
17:00+12ene555547 0.0 10081274
20:00+9e577194 0.0 1010504